Milan, NH

8:29 AM EDT on September 29, 2016 (GMT -0400)
Berlin Municipal

Weather History for KBML - October, 2011

Change the Weather History Date:

Saturday, October 8, 2011

  Actual Average Record
Temperature  
Mean Temperature 54 °F -  
Max Temperature 77 °F 57 °F 77 °F (2011)
Min Temperature 32 °F 31 °F 21 °F (1999)
Degree Days  
Heating Degree Days 12    
Growing Degree Days 4 (Base 50)    
Moisture  
Dew Point 42 °F    
Average Humidity 75    
Maximum Humidity 96    
Minimum Humidity 38    
Precipitation  
Precipitation 0.00 in - - ()
Sea Level Pressure  
Sea Level Pressure 30.39 in    
Wind  
Wind Speed 1 mph (WNW)    
Max Wind Speed 9 mph    
Max Gust Speed 16 mph    
Visibility 9 miles    
Events      
Averages and records for this station are not official NWS values.
T = Trace of Precipitation, MM = Missing Value Source: NWS Daily Summary

Daily Weather History Graph

Daily Weather History Graph

Search for Another Location

Airport or City:

Trip Planner

Search our weather history database for the weather conditions in past years. The results will help you decide how hot, cold, wet, or windy it might be!

Date:

Astronomy

Oct. 08, 2011 Rise Set
Actual Time 6:50 AM EDT 6:13 PM EDT
Civil Twilight 6:21 AM EDT 6:42 PM EDT
Nautical Twilight 5:47 AM EDT 7:15 PM EDT
Astronomical Twilight 5:13 AM EDT 7:49 PM EDT
Moon 4:27 PM EDT (10/8) 3:28 AM EDT (10/8)
Length of Visible Light 12h 20m
Length of Day
11h 22m
Waxing Gibbous, 90% of the Moon is Illuminated
Oct 8
Waxing Gibbous
Oct 11
Full
Oct 19
Last Quarter
Oct 26
New
Nov 2
First Quarter

Hourly Weather History & Observations

Time (EDT) Temp. Dew Point Humidity Pressure Visibility Wind Dir Wind Speed Gust Speed Precip Events Conditions
12:52 AM 36.0 °F 33.1 °F 89% 30.42 in 10.0 mi Calm Calm - N/A   Clear
1:52 AM 34.0 °F 32.0 °F 92% 30.41 in 10.0 mi Calm Calm - N/A   Clear
2:52 AM 34.0 °F 30.9 °F 89% 30.40 in 10.0 mi Calm Calm - N/A   Clear
3:52 AM 32.0 °F 30.9 °F 96% 30.41 in 10.0 mi Calm Calm - N/A   Clear
4:52 AM 33.1 °F 30.9 °F 92% 30.41 in 10.0 mi Calm Calm - N/A   Clear
5:52 AM 35.1 °F 34.0 °F 96% 30.43 in 10.0 mi Calm Calm - N/A   Clear
6:52 AM 34.0 °F 32.0 °F 92% 30.45 in 9.0 mi Calm Calm - N/A   Partly Cloudy
7:52 AM 36.0 °F 34.0 °F 93% 30.46 in 10.0 mi Calm Calm - N/A   Clear
8:52 AM 46.9 °F 42.1 °F 83% 30.46 in 10.0 mi Calm Calm - N/A   Clear
9:52 AM 59.0 °F 46.9 °F 64% 30.45 in 10.0 mi Calm Calm - N/A   Clear
10:52 AM 66.9 °F 48.9 °F 52% 30.43 in 10.0 mi NW 8.1 mph - N/A   Clear
11:52 AM 69.1 °F 48.9 °F 49% 30.42 in 10.0 mi Variable 6.9 mph - N/A   Clear
12:52 PM 73.0 °F 50.0 °F 44% 30.39 in 10.0 mi Variable 5.8 mph 16.1 mph N/A   Clear
2:52 PM 75.9 °F 48.9 °F 38% 30.35 in 10.0 mi NW 9.2 mph 16.1 mph N/A   Clear
3:52 PM 73.9 °F 48.9 °F 41% 30.35 in 10.0 mi WSW 8.1 mph - N/A   Clear
4:52 PM 73.0 °F 50.0 °F 44% 30.34 in 10.0 mi Calm Calm - N/A   Clear
5:52 PM 71.1 °F 48.9 °F 45% 30.34 in 10.0 mi WNW 3.5 mph - N/A   Clear
6:52 PM 60.1 °F 50.0 °F 69% 30.35 in 10.0 mi Calm Calm - N/A   Clear
7:52 PM 52.0 °F 48.9 °F 89% 30.37 in 8.0 mi Calm Calm - N/A   Clear
8:52 PM 46.9 °F 45.0 °F 93% 30.36 in 7.0 mi Calm Calm - N/A   Clear
9:52 PM 48.0 °F 45.0 °F 89% 30.35 in 7.0 mi Calm Calm - N/A   Clear
10:52 PM 46.0 °F 44.1 °F 93% 30.35 in 7.0 mi Calm Calm - N/A   Clear
11:52 PM 42.1 °F 39.9 °F 92% 30.35 in 8.0 mi Calm Calm - N/A   Clear